Location: East Fork Observatory
(32.9757°N, 94.4485°W)
Time: 23:36:36
(UTC-05:00)

Hubble Space Telescope - Visible Passes

Search period start: 22 October 2019 00:00
Search period end: 01 November 2019 00:00
Orbit: 536 x 540 km, 28.5° (Epoch: 21 October)

Date Brightness Start Highest point End Pass type
(mag) Time Alt. Az. Time Alt. Az. Time Alt. Az.
25 Oct 3.6 06:46:52 10° S 06:48:08 11° SSE 06:49:23 10° SE visible
26 Oct 3.4 06:35:14 10° S 06:37:27 14° SSE 06:39:39 10° SE visible
27 Oct 3.2 06:24:02 10° SSW 06:26:47 17° SSE 06:29:31 10° ESE visible
28 Oct 2.9 06:13:06 10° SSW 06:16:07 21° SSE 06:19:14 10° ESE visible
29 Oct 2.6 06:03:28 17° SSW 06:05:28 24° SSE 06:08:50 10° ESE visible
30 Oct 2.2 05:53:46 25° SSW 05:54:49 28° SSE 05:58:23 10° ESE visible
31 Oct 2.0 05:44:00 32° S 05:44:11 32° SSE 05:47:53 10° ESE visible
